Meteo Giornale » Osservazioni meteo Repubblica Ceca » Praha-Ruzyne

ore: 15:30 - Osservazioni Meteo Praha-Ruzyne
Lat. 50° 6' N Lon. 14° 15' E Alt. 365 metri s.l.m.

poco_nuvoloso Europe/Prague

22 °C

Poco Nuvoloso

Temp. 24 Ore

15 °C

23 °C

Est/Nord-Est

24 Km/h

Dew point 14 °C

Umidità 60 %

Visibilità  10 Km

Il sole sorge alle ore 05:03

Il sole tramonta alle ore 20:56

Data e Ora Cielo e Fenomeni T °C DP °C Um. % Pres. hPa Vis. km Vento km/h
Oggi h: 15:30 poco_nuvoloso Poco Nuvoloso 22 14 60 1018 10 E/NE 24
Oggi h: 15:00 nuvoloso Nuvoloso 22 14 60 1018 10 E 22.2
Oggi h: 14:30 nuvoloso Nuvoloso 23 14 56 1019 10 E 22.2
Oggi h: 14:00 nuvoloso Nuvoloso 23 15 60 1019 10 E 22.2
Oggi h: 13:30 poco_nuvoloso Poco Nuvoloso 23 15 60 1019 10 E 24
Oggi h: 13:00 poco_nuvoloso Poco Nuvoloso 23 14 56 1020 10 E/NE 29.6
Oggi h: 12:30 poco_nuvoloso Poco Nuvoloso 22 14 60 1020 10 E 25.9
Oggi h: 12:00 poco_nuvoloso Poco Nuvoloso 22 14 60 1020 10 E 22.2
Oggi h: 11:30 poco_nuvoloso Poco Nuvoloso 21 14 64 1020 10 E 24
Oggi h: 11:00 poco_nuvoloso Poco Nuvoloso 21 15 68 1020 10 E 22.2
Oggi h: 10:30 poco_nuvoloso Poco Nuvoloso 20 14 68 1020 10 E 24
Oggi h: 10:00 sereno Sereno 19 14 72 1020 10 E 22.2
Oggi h: 09:30 sereno Sereno 19 14 72 1020 10 E 22.2
Oggi h: 09:00 sereno Sereno 18 14 77 1020 10 E/NE 16.7
Oggi h: 08:30 sereno Sereno 17 14 82 1020 10 E/NE 18.5
Oggi h: 08:00 sereno Sereno 17 14 82 1020 10 E 20.3
Oggi h: 07:30 sereno Sereno 17 14 82 1020 10 E/NE 14.8
Oggi h: 07:00 sereno Sereno 16 14 87 1020 10 NE 11.1
Oggi h: 06:30 sereno Sereno 16 15 93 1020 10 N/NE 9.3
Oggi h: 06:00 poco_nuvoloso Poco Nuvoloso 15 15 100 1020 6 N/NE 9.3
Oggi h: 05:37 foschia Foschia 15 15 100 1020 5 N 9.3
Oggi h: 05:30 foschia Foschia 15 14 93 1020 4 N 9.3
Oggi h: 05:00 foschia Foschia 15 14 93 1020 3 N 11.1
Oggi h: 04:48 foschia Foschia 15 14 93 1020 4 N 7.4
Oggi h: 04:30 poco_nuvoloso Poco Nuvoloso 15 14 93 1020 6 N 5.5
Oggi h: 04:09 foschia Foschia 15 14 93 1020 5 N/NO 9.3
Oggi h: 04:00 foschia Foschia 15 14 93 1020 4 N/NO 9.3
Oggi h: 03:42 foschia Foschia 15 14 93 1020 4 NO 7.4
Oggi h: 03:30 nuvoloso Nuvoloso 15 14 93 1020 7 NO 7.4
Oggi h: 03:00 nuvoloso Nuvoloso 15 15 100 1021 9 N 7.4
Oggi h: 02:30 coperto_pioggia Pioggia Debole 15 15 100 1021 10 N/NO 7.4
Oggi h: 02:00 coperto_pioggia Pioggia Debole 15 15 100 1020 10 NO 9.3
Oggi h: 01:35 coperto_pioggia Pioggia Debole 16 15 93 1021 10 O/NO 7.4
Oggi h: 01:30 nuvoloso_piovaschi Debole Rovescio di Pioggia Temporale nelle Vicinanze 16 15 93 1021 10 N 5.5
Oggi h: 01:20 nuvoloso_piovaschi Debole Rovescio di Pioggia Temporale nelle Vicinanze 16 15 93 1021 10 N 1.8
Oggi h: 01:00 nuvoloso_temporali Temporale con Pioggia Debole 16 15 93 1021 9 N 5.5
Oggi h: 00:52 nuvoloso_temporali Temporale con Pioggia Debole 16 15 93 1021 9 E/SE 7.4
Oggi h: 00:49 nuvoloso_piovaschi Rovescio di Pioggia Temporale nelle Vicinanze 16 15 93 1021 7 E/SE 7.4
Oggi h: 00:30 nuvoloso_piovaschi Rovescio di Pioggia Temporale nelle Vicinanze 16 15 93 1021 5 E/SE 9.3
Oggi h: 00:22 nuvoloso_temporali Temporale con Pioggia 16 15 93 1021 4 SE 13
Oggi h: 00:04 nuvoloso_temporali Temporale con Pioggia 16 15 93 1021 7 SE 22.2
Oggi h: 00:02 nuvoloso_temporali Temporale con Pioggia 17 15 88 1020 4 E/SE 22.2
Oggi h: 00:00 nuvoloso_temporali Temporale con Pioggia 17 15 88 1020 5 E/SE 22.2
Ieri h: 23:56 nuvoloso_temporali Temporale con Pioggia 17 15 88 1020 4 E 24
Ieri h: 23:53 nuvoloso_temporali Temporale con Pioggia 17 15 88 1020 3 E 24
Ieri h: 23:50 nuvoloso_temporali Temporale con Pioggia 17 14 82 1020 2 E 24
Ieri h: 23:44 nuvoloso_temporali Temporale con Pioggia Debole 18 14 77 1020 10 E 16.7
Ieri h: 23:30 nuvoloso_piovaschi Debole Rovescio di Pioggia Temporale nelle Vicinanze 18 15 82 1020 10 E 14.8
Ieri h: 23:26 nuvoloso_piovaschi Debole Rovescio di Pioggia Temporale nelle Vicinanze 18 15 82 1020 10 E 14.8
Ieri h: 23:08 nuvoloso_piovaschi Debole Rovescio di Pioggia 18 15 82 1020 10 N 5.5
Ieri h: 23:00 molto_nuvoloso Molto Nuvoloso 18 15 82 1020 10 N 5.5
Ieri h: 22:46 poco_nuvoloso Poco Nuvoloso 18 15 82 1020 10 N 5.5
Ieri h: 22:30 nuvoloso_piovaschi Debole Rovescio di Pioggia Temporale nelle Vicinanze 19 15 77 1019 10 N 9.3
Ieri h: 22:22 nuvoloso_piovaschi Debole Rovescio di Pioggia Temporale nelle Vicinanze 19 15 77 1019 10 N 9.3
Ieri h: 22:16 nuvoloso_temporali Temporale nelle Vicinanze 19 15 77 1019 10 N/NE 9.3
Ieri h: 22:06 coperto_temporali Temporale 18 15 82 1019 10 N 13
Ieri h: 22:01 nuvoloso_temporali Temporale nelle Vicinanze 18 15 82 1019 10 N 11.1
Ieri h: 22:00 nuvoloso Nuvoloso 18 15 82 1019 10 N 11.1
Ieri h: 21:30 poco_nuvoloso Poco Nuvoloso 17 15 88 1019 10 N 13
Ieri h: 21:00 poco_nuvoloso Poco Nuvoloso 18 15 82 1019 10 N 11.1
Ieri h: 20:30 poco_nuvoloso Poco Nuvoloso 17 16 93 1019 10 N 9.3
Ieri h: 20:00 poco_nuvoloso Poco Nuvoloso 18 15 82 1019 10 N/NO 13
Ieri h: 19:43 nuvoloso_piovaschi Debole Rovescio di Pioggia 19 15 77 1018 10 N/NE 16.7
Ieri h: 19:30 nuvoloso_temporali Temporale nelle Vicinanze 19 15 77 1018 10 NE 18.5
Ieri h: 18:41 nuvoloso_temporali Temporale nelle Vicinanze 19 14 72 1018 10 E/NE 29.6
Ieri h: 18:30 nuvoloso_temporali Temporale nelle Vicinanze 20 15 72 1018 10 E/NE 33.3
Ieri h: 18:00 nuvoloso_temporali Temporale nelle Vicinanze 22 14 60 1017 10 E/NE 24
Ieri h: 17:55 nuvoloso_temporali Temporale nelle Vicinanze 22 14 60 1017 10 E/NE 24
Ieri h: 17:30 nuvoloso Nuvoloso 23 14 56 1017 10 NE 24
Ieri h: 17:00 nuvoloso Nuvoloso 22 14 60 1018 10 E/NE 25.9
Ieri h: 16:30 nuvoloso Nuvoloso 23 14 56 1018 10 NE 24
Ieri h: 16:00 nuvoloso Nuvoloso 23 16 64 1018 10 E/NE 18.5